TimeMST,TemperatureF,Dew PointF,Humidity,Sea Level PressureIn,VisibilityMPH,Wind Direction,Wind SpeedMPH,Gust SpeedMPH,PrecipitationIn,Events,Conditions,WindDirDegrees,DateUTC
12:15 AM,25.7,8.1,47,30.05,10.0,ENE,6.9,-,N/A,,Clear,60,2012-11-26 07:15:00
12:35 AM,26.1,8.4,47,30.06,10.0,ENE,5.8,-,N/A,,Clear,60,2012-11-26 07:35:00
12:55 AM,28.4,9.9,46,30.05,10.0,ENE,5.8,-,N/A,,Clear,70,2012-11-26 07:55:00
1:15 AM,23.7,7.3,50,30.05,10.0,ENE,5.8,-,N/A,,Clear,60,2012-11-26 08:15:00
1:35 AM,26.6,9.3,48,30.06,10.0,ENE,4.6,-,N/A,,Clear,70,2012-11-26 08:35:00
1:55 AM,25.0,9.1,51,30.06,10.0,East,3.5,-,N/A,,Clear,80,2012-11-26 08:55:00
2:15 AM,27.3,9.5,47,30.07,10.0,ENE,3.5,-,N/A,,Clear,60,2012-11-26 09:15:00
2:35 AM,21.7,6.1,51,30.08,10.0,Calm,Calm,-,N/A,,Clear,0,2012-11-26 09:35:00
2:55 AM,22.6,6.3,50,30.08,10.0,WNW,8.1,-,N/A,,Clear,290,2012-11-26 09:55:00
3:15 AM,37.4,12.7,36,30.08,10.0,WNW,8.1,-,N/A,,Clear,290,2012-11-26 10:15:00
3:35 AM,39.0,11.8,33,30.08,10.0,NNW,5.8,-,N/A,,Clear,340,2012-11-26 10:35:00
3:55 AM,28.0,9.3,45,30.08,10.0,NNW,4.6,-,N/A,,Clear,330,2012-11-26 10:55:00
4:15 AM,25.7,7.3,46,30.08,10.0,NNW,6.9,-,N/A,,Clear,330,2012-11-26 11:15:00
4:35 AM,21.7,7.0,53,30.08,10.0,WNW,8.1,-,N/A,,Clear,290,2012-11-26 11:35:00
4:55 AM,22.3,7.0,52,30.08,10.0,WNW,10.4,-,N/A,,Clear,290,2012-11-26 11:55:00
5:15 AM,29.5,10.9,46,30.09,10.0,WNW,11.5,-,N/A,,Clear,290,2012-11-26 12:15:00
5:35 AM,32.7,10.0,39,30.10,10.0,Calm,Calm,-,N/A,,Clear,0,2012-11-26 12:35:00
5:55 AM,23.4,7.7,51,30.12,10.0,NE,3.5,-,N/A,,Clear,50,2012-11-26 12:55:00
6:15 AM,21.0,6.6,54,30.12,10.0,Calm,Calm,-,N/A,,Clear,0,2012-11-26 13:15:00
6:35 AM,18.5,5.4,57,30.13,10.0,North,4.6,-,N/A,,Clear,10,2012-11-26 13:35:00
6:55 AM,18.7,6.1,58,30.14,10.0,North,3.5,-,N/A,,Clear,360,2012-11-26 13:55:00
7:15 AM,19.4,6.4,57,30.15,10.0,NE,5.8,-,N/A,,Clear,50,2012-11-26 14:15:00
7:35 AM,23.0,7.7,52,30.15,10.0,NNE,4.6,-,N/A,,Clear,20,2012-11-26 14:35:00
7:55 AM,28.8,9.5,45,30.15,10.0,North,3.5,-,N/A,,Clear,360,2012-11-26 14:55:00
8:15 AM,33.4,10.9,39,30.17,10.0,NNW,5.8,-,N/A,,Clear,340,2012-11-26 15:15:00
8:35 AM,37.4,12.0,35,30.17,10.0,North,5.8,-,N/A,,Clear,360,2012-11-26 15:35:00
8:55 AM,42.4,13.1,30,30.17,10.0,North,4.6,-,N/A,,Clear,10,2012-11-26 15:55:00
9:15 AM,46.6,14.0,27,30.18,10.0,NNE,4.6,-,N/A,,Clear,30,2012-11-26 16:15:00
9:35 AM,48.4,14.5,26,30.18,10.0,NNE,3.5,-,N/A,,Clear,30,2012-11-26 16:35:00
9:55 AM,51.1,14.9,24,30.19,10.0,NE,3.5,-,N/A,,Clear,50,2012-11-26 16:55:00
10:15 AM,53.6,15.6,22,30.19,10.0,ENE,3.5,-,N/A,,Clear,60,2012-11-26 17:15:00
10:35 AM,57.9,16.3,20,30.18,10.0,NNW,10.4,-,N/A,,Clear,330,2012-11-26 17:35:00
10:55 AM,59.7,15.8,18,30.18,10.0,NNW,11.5,16.1,N/A,,Clear,340,2012-11-26 17:55:00
11:15 AM,61.5,15.1,16,30.18,10.0,NW,13.8,18.4,N/A,,Clear,310,2012-11-26 18:15:00
11:35 AM,59.9,14.2,17,30.18,10.0,WNW,11.5,-,N/A,,Clear,290,2012-11-26 18:35:00
11:55 AM,60.1,14.0,16,30.17,10.0,NW,10.4,-,N/A,,Clear,310,2012-11-26 18:55:00
12:15 PM,60.6,13.8,16,30.17,10.0,North,10.4,-,N/A,,Clear,360,2012-11-26 19:15:00
12:35 PM,59.2,13.6,17,30.17,10.0,North,12.7,18.4,N/A,,Clear,350,2012-11-26 19:35:00
12:55 PM,58.6,13.1,17,30.17,10.0,North,11.5,18.4,N/A,,Clear,360,2012-11-26 19:55:00
1:15 PM,57.9,13.5,17,30.18,10.0,NNE,11.5,-,N/A,,Clear,20,2012-11-26 20:15:00
1:35 PM,57.6,13.6,18,30.18,10.0,North,9.2,-,N/A,,Clear,360,2012-11-26 20:35:00
1:55 PM,58.1,12.9,17,30.18,10.0,NNW,6.9,-,N/A,,Clear,340,2012-11-26 20:55:00
2:15 PM,58.5,12.4,16,30.19,10.0,NNW,5.8,-,N/A,,Clear,340,2012-11-26 21:15:00
2:35 PM,58.5,11.3,16,30.19,10.0,NNW,8.1,-,N/A,,Clear,340,2012-11-26 21:35:00
2:55 PM,58.1,11.7,16,30.19,10.0,North,5.8,-,N/A,,Clear,360,2012-11-26 21:55:00
3:15 PM,57.4,11.1,16,30.19,10.0,NE,3.5,-,N/A,,Clear,40,2012-11-26 22:15:00
3:55 PM,55.0,10.2,17,30.20,10.0,Calm,Calm,-,N/A,,Clear,0,2012-11-26 22:55:00
4:15 PM,52.3,10.2,19,30.21,10.0,East,11.5,-,N/A,,Clear,90,2012-11-26 23:15:00
4:35 PM,48.7,12.4,23,30.22,10.0,East,6.9,-,N/A,,Clear,90,2012-11-26 23:35:00
4:55 PM,46.6,14.0,27,30.23,10.0,ESE,8.1,-,N/A,,Clear,110,2012-11-26 23:55:00
5:15 PM,44.1,14.7,31,30.23,10.0,East,10.4,-,N/A,,Clear,100,2012-11-27 00:15:00
5:35 PM,42.1,14.9,33,30.25,10.0,South,3.5,-,N/A,,Clear,170,2012-11-27 00:35:00
5:55 PM,39.0,14.2,36,30.27,10.0,SW,4.6,-,N/A,,Clear,220,2012-11-27 00:55:00
6:15 PM,37.9,15.1,39,30.29,10.0,South,3.5,-,N/A,,Clear,190,2012-11-27 01:15:00
6:35 PM,39.7,18.0,42,30.31,10.0,SSE,3.5,-,N/A,,Clear,160,2012-11-27 01:35:00
6:55 PM,39.0,19.9,46,30.33,10.0,SSE,4.6,-,N/A,,Clear,150,2012-11-27 01:55:00
7:15 PM,37.4,18.5,46,30.33,10.0,SSE,5.8,-,N/A,,Clear,150,2012-11-27 02:15:00
7:35 PM,32.7,17.6,54,30.35,10.0,SSE,6.9,-,N/A,,Clear,160,2012-11-27 02:35:00
7:55 PM,33.3,20.5,59,30.35,10.0,SSE,10.4,-,N/A,,Clear,150,2012-11-27 02:55:00
8:55 PM,30.0,19.8,66,30.38,10.0,SSE,8.1,-,N/A,,Clear,160,2012-11-27 03:55:00
9:15 PM,28.2,19.0,68,30.38,10.0,SSE,6.9,-,N/A,,Clear,160,2012-11-27 04:15:00
9:35 PM,28.6,19.4,69,30.39,10.0,SSE,8.1,-,N/A,,Clear,150,2012-11-27 04:35:00
9:55 PM,26.1,18.5,73,30.40,10.0,South,6.9,-,N/A,,Clear,180,2012-11-27 04:55:00
10:15 PM,25.3,17.8,73,30.40,10.0,South,5.8,-,N/A,,Clear,190,2012-11-27 05:15:00
10:35 PM,24.3,17.4,75,30.40,10.0,South,5.8,-,N/A,,Clear,190,2012-11-27 05:35:00
10:55 PM,23.0,16.0,74,30.40,10.0,South,5.8,-,N/A,,Clear,170,2012-11-27 05:55:00
11:15 PM,23.0,16.5,76,30.41,10.0,South,4.6,-,N/A,,Clear,190,2012-11-27 06:15:00
11:35 PM,21.9,15.8,77,30.41,10.0,South,5.8,-,N/A,,Clear,180,2012-11-27 06:35:00
11:55 PM,20.3,14.5,78,30.40,10.0,SSW,4.6,-,N/A,,Clear,200,2012-11-27 06:55:00